Time,TemperatureF,DewpointF,PressureIn,WindDirection,WindDirectionDegrees,WindSpeedMPH,WindSpeedGustMPH,Humidity,HourlyPrecipIn,Conditions,Clouds,dailyrainin,SoftwareType,DateUTC
2013-11-21 00:01:00,29.8,13.9,30.64,South,181,3.0,5.0,51,0.00,,,0.00,HR-IXPWINDi_r2_v1.2.,2013-11-21 05:01:00,
2013-11-21 00:06:00,29.6,14.2,30.64,SSW,194,3.0,4.0,52,0.00,,,0.00,HR-IXPWINDi_r2_v1.2.,2013-11-21 05:06:00,
2013-11-21 00:11:00,29.4,14.8,30.64,South,183,2.0,6.0,54,0.00,,,0.00,HR-IXPWINDi_r2_v1.2.,2013-11-21 05:11:00,
2013-11-21 00:16:00,29.4,15.3,30.64,SSW,205,3.0,6.0,55,0.00,,,0.00,HR-IXPWINDi_r2_v1.2.,2013-11-21 05:16:00,
2013-11-21 00:22:00,29.4,15.7,30.64,South,177,4.0,6.0,56,0.00,,,0.00,HR-IXPWINDi_r2_v1.2.,2013-11-21 05:22:00,
2013-11-21 00:27:00,29.4,15.7,30.64,South,176,3.0,6.0,56,0.00,,,0.00,HR-IXPWINDi_r2_v1.2.,2013-11-21 05:27:00,
2013-11-21 00:32:00,29.3,16.0,30.64,South,181,2.0,6.0,57,0.00,,,0.00,HR-IXPWINDi_r2_v1.2.,2013-11-21 05:32:00,
2013-11-21 00:37:00,29.1,15.8,30.64,South,184,2.0,5.0,57,0.00,,,0.00,HR-IXPWINDi_r2_v1.2.,2013-11-21 05:37:00,
2013-11-21 00:42:00,28.9,15.6,30.65,SSW,212,5.0,5.0,57,0.00,,,0.00,HR-IXPWINDi_r2_v1.2.,2013-11-21 05:42:00,
2013-11-21 00:48:00,29.2,15.5,30.65,SSW,194,3.0,7.0,56,0.00,,,0.00,HR-IXPWINDi_r2_v1.2.,2013-11-21 05:48:00,
2013-11-21 00:53:00,29.1,15.4,30.65,South,187,2.0,7.0,56,0.00,,,0.00,HR-IXPWINDi_r2_v1.2.,2013-11-21 05:53:00,
2013-11-21 00:58:00,29.0,15.3,30.65,South,177,2.0,7.0,56,0.00,,,0.00,HR-IXPWINDi_r2_v1.2.,2013-11-21 05:58:00,
2013-11-21 01:03:00,29.0,14.9,30.65,South,191,2.0,5.0,55,0.00,,,0.00,HR-IXPWINDi_r2_v1.2.,2013-11-21 06:03:00,
2013-11-21 01:08:00,29.1,15.0,30.65,South,189,3.0,5.0,55,0.00,,,0.00,HR-IXPWINDi_r2_v1.2.,2013-11-21 06:08:00,
2013-11-21 01:13:00,29.4,14.8,30.65,SW,218,2.0,6.0,54,0.00,,,0.00,HR-IXPWINDi_r2_v1.2.,2013-11-21 06:13:00,
2013-11-21 01:19:00,29.4,14.4,30.65,South,181,2.0,6.0,53,0.00,,,0.00,HR-IXPWINDi_r2_v1.2.,2013-11-21 06:19:00,
2013-11-21 01:24:00,29.3,14.3,30.65,South,170,1.0,4.0,53,0.00,,,0.00,HR-IXPWINDi_r2_v1.2.,2013-11-21 06:24:00,
2013-11-21 01:29:00,29.2,14.2,30.65,South,183,2.0,4.0,53,0.00,,,0.00,HR-IXPWINDi_r2_v1.2.,2013-11-21 06:29:00,
2013-11-21 01:34:00,29.0,14.5,30.65,South,177,1.0,4.0,54,0.00,,,0.00,HR-IXPWINDi_r2_v1.2.,2013-11-21 06:34:00,
2013-11-21 01:39:00,28.8,14.3,30.65,South,183,2.0,5.0,54,0.00,,,0.00,HR-IXPWINDi_r2_v1.2.,2013-11-21 06:39:00,
2013-11-21 01:45:00,28.8,14.3,30.65,SSW,207,3.0,5.0,54,0.00,,,0.00,HR-IXPWINDi_r2_v1.2.,2013-11-21 06:45:00,
2013-11-21 01:50:00,28.7,14.6,30.65,South,186,3.0,4.0,55,0.00,,,0.00,HR-IXPWINDi_r2_v1.2.,2013-11-21 06:50:00,
2013-11-21 01:55:00,28.5,14.4,30.65,SSW,209,4.0,5.0,55,0.00,,,0.00,HR-IXPWINDi_r2_v1.2.,2013-11-21 06:55:00,
2013-11-21 02:00:00,28.6,14.5,30.65,SSW,193,3.0,5.0,55,0.00,,,0.00,HR-IXPWINDi_r2_v1.2.,2013-11-21 07:00:00,
2013-11-21 02:05:00,28.5,14.4,30.65,South,174,1.0,5.0,55,0.00,,,0.00,HR-IXPWINDi_r2_v1.2.,2013-11-21 07:05:00,
2013-11-21 02:11:00,28.4,14.7,30.65,SSW,199,4.0,4.0,56,0.00,,,0.00,HR-IXPWINDi_r2_v1.2.,2013-11-21 07:11:00,
2013-11-21 02:16:00,28.5,14.4,30.65,South,186,2.0,5.0,55,0.00,,,0.00,HR-IXPWINDi_r2_v1.2.,2013-11-21 07:16:00,
2013-11-21 02:21:00,28.5,14.4,30.65,SSW,195,3.0,5.0,55,0.00,,,0.00,HR-IXPWINDi_r2_v1.2.,2013-11-21 07:21:00,
2013-11-21 02:26:00,28.7,14.2,30.65,SSW,210,3.0,5.0,54,0.00,,,0.00,HR-IXPWINDi_r2_v1.2.,2013-11-21 07:26:00,
2013-11-21 02:31:00,28.9,14.4,30.65,SSW,203,3.0,6.0,54,0.00,,,0.00,HR-IXPWINDi_r2_v1.2.,2013-11-21 07:31:00,
2013-11-21 02:36:00,29.0,14.0,30.65,SSW,205,3.0,6.0,53,0.00,,,0.00,HR-IXPWINDi_r2_v1.2.,2013-11-21 07:36:00,
2013-11-21 02:41:00,29.0,14.0,30.65,SSW,207,3.0,6.0,53,0.00,,,0.00,HR-IXPWINDi_r2_v1.2.,2013-11-21 07:41:00,
2013-11-21 02:46:00,29.1,14.1,30.65,SSW,201,3.0,6.0,53,0.00,,,0.00,HR-IXPWINDi_r2_v1.2.,2013-11-21 07:46:00,
2013-11-21 02:51:00,29.2,14.2,30.65,SSW,208,2.0,5.0,53,0.00,,,0.00,HR-IXPWINDi_r2_v1.2.,2013-11-21 07:51:00,
2013-11-21 02:57:00,29.2,14.2,30.65,SSW,195,1.0,5.0,53,0.00,,,0.00,HR-IXPWINDi_r2_v1.2.,2013-11-21 07:57:00,
2013-11-21 03:02:00,29.0,14.5,30.65,SSW,194,3.0,5.0,54,0.00,,,0.00,HR-IXPWINDi_r2_v1.2.,2013-11-21 08:02:00,
2013-11-21 03:07:00,28.9,14.4,30.65,SSW,194,2.0,4.0,54,0.00,,,0.00,HR-IXPWINDi_r2_v1.2.,2013-11-21 08:07:00,
2013-11-21 03:12:00,28.7,14.2,30.65,SSW,210,4.0,4.0,54,0.00,,,0.00,HR-IXPWINDi_r2_v1.2.,2013-11-21 08:12:00,
2013-11-21 03:17:00,28.7,14.6,30.64,South,170,1.0,4.0,55,0.00,,,0.00,HR-IXPWINDi_r2_v1.2.,2013-11-21 08:17:00,
2013-11-21 03:22:00,28.6,14.5,30.64,SSW,210,3.0,4.0,55,0.00,,,0.00,HR-IXPWINDi_r2_v1.2.,2013-11-21 08:22:00,
2013-11-21 03:27:00,28.5,14.8,30.64,SSW,198,4.0,5.0,56,0.00,,,0.00,HR-IXPWINDi_r2_v1.2.,2013-11-21 08:27:00,
2013-11-21 03:33:00,28.4,14.7,30.64,South,191,2.0,5.0,56,0.00,,,0.00,HR-IXPWINDi_r2_v1.2.,2013-11-21 08:33:00,
2013-11-21 03:38:00,28.4,14.7,30.64,SW,221,4.0,5.0,56,0.00,,,0.00,HR-IXPWINDi_r2_v1.2.,2013-11-21 08:38:00,
2013-11-21 03:43:00,28.3,15.0,30.64,SSW,205,3.0,6.0,57,0.00,,,0.00,HR-IXPWINDi_r2_v1.2.,2013-11-21 08:43:00,
2013-11-21 03:48:00,28.2,15.3,30.64,SSW,197,2.0,6.0,58,0.00,,,0.00,HR-IXPWINDi_r2_v1.2.,2013-11-21 08:48:00,
2013-11-21 03:54:00,28.1,15.6,30.64,SSW,205,3.0,6.0,59,0.00,,,0.00,HR-IXPWINDi_r2_v1.2.,2013-11-21 08:54:00,
2013-11-21 03:59:00,28.0,15.5,30.64,SW,217,3.0,6.0,59,0.00,,,0.00,HR-IXPWINDi_r2_v1.2.,2013-11-21 08:59:00,
2013-11-21 04:04:00,28.0,15.5,30.64,SSW,210,3.0,6.0,59,0.00,,,0.00,HR-IXPWINDi_r2_v1.2.,2013-11-21 09:04:00,
2013-11-21 04:09:00,28.0,15.5,30.64,SSW,205,3.0,6.0,59,0.00,,,0.00,HR-IXPWINDi_r2_v1.2.,2013-11-21 09:09:00,
2013-11-21 04:14:00,28.0,15.5,30.64,South,186,6.0,6.0,59,0.00,,,0.00,HR-IXPWINDi_r2_v1.2.,2013-11-21 09:14:00,
2013-11-21 04:20:00,27.9,15.8,30.64,SSW,203,4.0,7.0,60,0.00,,,0.00,HR-IXPWINDi_r2_v1.2.,2013-11-21 09:20:00,
2013-11-21 04:25:00,27.8,15.7,30.65,SSW,208,3.0,7.0,60,0.00,,,0.00,HR-IXPWINDi_r2_v1.2.,2013-11-21 09:25:00,
2013-11-21 04:30:00,27.7,15.6,30.65,South,188,3.0,6.0,60,0.00,,,0.00,HR-IXPWINDi_r2_v1.2.,2013-11-21 09:30:00,
2013-11-21 04:35:00,27.6,15.6,30.65,SSW,197,4.0,7.0,60,0.00,,,0.00,HR-IXPWINDi_r2_v1.2.,2013-11-21 09:35:00,
2013-11-21 04:40:00,27.6,15.2,30.65,SSW,208,4.0,7.0,59,0.00,,,0.00,HR-IXPWINDi_r2_v1.2.,2013-11-21 09:40:00,
2013-11-21 04:45:00,27.7,15.3,30.65,SSW,194,4.0,7.0,59,0.00,,,0.00,HR-IXPWINDi_r2_v1.2.,2013-11-21 09:45:00,
2013-11-21 04:50:00,27.7,15.3,30.65,SSW,197,3.0,7.0,59,0.00,,,0.00,HR-IXPWINDi_r2_v1.2.,2013-11-21 09:50:00,
2013-11-21 04:55:00,27.7,15.3,30.65,South,190,3.0,6.0,59,0.00,,,0.00,HR-IXPWINDi_r2_v1.2.,2013-11-21 09:55:00,
2013-11-21 05:01:00,27.7,15.3,30.65,South,190,6.0,6.0,59,0.00,,,0.00,HR-IXPWINDi_r2_v1.2.,2013-11-21 10:01:00,
2013-11-21 05:06:00,27.8,15.4,30.65,SSW,210,7.0,8.0,59,0.00,,,0.00,HR-IXPWINDi_r2_v1.2.,2013-11-21 10:06:00,
2013-11-21 05:11:00,28.0,15.2,30.64,WSW,239,5.0,8.0,58,0.00,,,0.00,HR-IXPWINDi_r2_v1.2.,2013-11-21 10:11:00,
2013-11-21 05:16:00,28.1,15.6,30.64,SW,218,4.0,8.0,59,0.00,,,0.00,HR-IXPWINDi_r2_v1.2.,2013-11-21 10:16:00,
2013-11-21 05:21:00,28.6,15.7,30.64,SSW,210,2.0,7.0,58,0.00,,,0.00,HR-IXPWINDi_r2_v1.2.,2013-11-21 10:21:00,
2013-11-21 05:26:00,28.8,15.1,30.64,SSW,211,2.0,6.0,56,0.00,,,0.00,HR-IXPWINDi_r2_v1.2.,2013-11-21 10:26:00,
2013-11-21 05:31:00,28.7,14.6,30.64,SSW,210,3.0,6.0,55,0.00,,,0.00,HR-IXPWINDi_r2_v1.2.,2013-11-21 10:31:00,
2013-11-21 05:37:00,28.5,14.8,30.64,SSW,210,4.0,6.0,56,0.00,,,0.00,HR-IXPWINDi_r2_v1.2.,2013-11-21 10:37:00,
2013-11-21 05:42:00,28.5,14.8,30.64,SSW,210,4.0,6.0,56,0.00,,,0.00,HR-IXPWINDi_r2_v1.2.,2013-11-21 10:42:00,
2013-11-21 05:47:00,28.6,14.1,30.64,SSW,195,3.0,6.0,54,0.00,,,0.00,HR-IXPWINDi_r2_v1.2.,2013-11-21 10:47:00,
2013-11-21 05:52:00,28.9,14.4,30.65,SSW,204,3.0,7.0,54,0.00,,,0.00,HR-IXPWINDi_r2_v1.2.,2013-11-21 10:52:00,
2013-11-21 05:58:00,29.0,14.0,30.65,SSW,198,4.0,7.0,53,0.00,,,0.00,HR-IXPWINDi_r2_v1.2.,2013-11-21 10:58:00,
2013-11-21 06:03:00,29.2,14.2,30.65,SSW,210,5.0,7.0,53,0.00,,,0.00,HR-IXPWINDi_r2_v1.2.,2013-11-21 11:03:00,
2013-11-21 06:08:00,29.4,14.0,30.65,SW,215,4.0,8.0,52,0.00,,,0.00,HR-IXPWINDi_r2_v1.2.,2013-11-21 11:08:00,
2013-11-21 06:13:00,29.4,14.0,30.65,SSW,210,4.0,8.0,52,0.00,,,0.00,HR-IXPWINDi_r2_v1.2.,2013-11-21 11:13:00,
2013-11-21 06:18:00,29.1,14.1,30.65,SSW,208,3.0,6.0,53,0.00,,,0.00,HR-IXPWINDi_r2_v1.2.,2013-11-21 11:18:00,
2013-11-21 06:23:00,28.9,14.4,30.65,SSW,208,4.0,5.0,54,0.00,,,0.00,HR-IXPWINDi_r2_v1.2.,2013-11-21 11:23:00,
2013-11-21 06:29:00,28.8,14.3,30.65,SSW,212,4.0,6.0,54,0.00,,,0.00,HR-IXPWINDi_r2_v1.2.,2013-11-21 11:29:00,
2013-11-21 06:34:00,28.8,14.3,30.65,SSW,203,4.0,6.0,54,0.00,,,0.00,HR-IXPWINDi_r2_v1.2.,2013-11-21 11:34:00,
2013-11-21 06:39:00,28.6,14.5,30.65,SSW,212,4.0,6.0,55,0.00,,,0.00,HR-IXPWINDi_r2_v1.2.,2013-11-21 11:39:00,
2013-11-21 06:44:00,28.7,14.6,30.65,SW,218,4.0,6.0,55,0.00,,,0.00,HR-IXPWINDi_r2_v1.2.,2013-11-21 11:44:00,
2013-11-21 06:49:00,28.7,14.2,30.65,SW,215,5.0,6.0,54,0.00,,,0.00,HR-IXPWINDi_r2_v1.2.,2013-11-21 11:49:00,
2013-11-21 06:55:00,28.7,14.2,30.65,SW,218,4.0,6.0,54,0.00,,,0.00,HR-IXPWINDi_r2_v1.2.,2013-11-21 11:55:00,
2013-11-21 07:00:00,28.9,14.4,30.65,SW,229,3.0,6.0,54,0.00,,,0.00,HR-IXPWINDi_r2_v1.2.,2013-11-21 12:00:00,
2013-11-21 07:05:00,29.0,14.5,30.65,SSW,210,2.0,6.0,54,0.00,,,0.00,HR-IXPWINDi_r2_v1.2.,2013-11-21 12:05:00,
2013-11-21 07:10:00,29.1,14.6,30.65,SSW,212,4.0,6.0,54,0.00,,,0.00,HR-IXPWINDi_r2_v1.2.,2013-11-21 12:10:00,
2013-11-21 07:15:00,29.3,14.7,30.65,SSW,205,2.0,6.0,54,0.00,,,0.00,HR-IXPWINDi_r2_v1.2.,2013-11-21 12:15:00,
2013-11-21 07:20:00,29.5,14.9,30.65,SSW,213,6.0,6.0,54,0.00,,,0.00,HR-IXPWINDi_r2_v1.2.,2013-11-21 12:20:00,
2013-11-21 07:25:00,29.9,15.3,30.65,SSW,205,3.0,6.0,54,0.00,,,0.00,HR-IXPWINDi_r2_v1.2.,2013-11-21 12:25:00,
2013-11-21 07:30:00,30.2,15.6,30.65,SSW,194,4.0,6.0,54,0.00,,,0.00,HR-IXPWINDi_r2_v1.2.,2013-11-21 12:30:00,
2013-11-21 07:36:00,30.4,16.2,30.65,SSW,195,4.0,7.0,55,0.00,,,0.00,HR-IXPWINDi_r2_v1.2.,2013-11-21 12:36:00,
2013-11-21 07:41:00,30.2,16.0,30.65,SSW,193,5.0,7.0,55,0.00,,,0.00,HR-IXPWINDi_r2_v1.2.,2013-11-21 12:41:00,
2013-11-21 07:46:00,30.0,16.6,30.65,SW,215,5.0,6.0,57,0.00,,,0.00,HR-IXPWINDi_r2_v1.2.,2013-11-21 12:46:00,
2013-11-21 07:51:00,30.0,17.0,30.65,SSW,197,3.0,6.0,58,0.00,,,0.00,HR-IXPWINDi_r2_v1.2.,2013-11-21 12:51:00,
2013-11-21 07:56:00,30.3,17.3,30.65,SW,225,5.0,7.0,58,0.00,,,0.00,HR-IXPWINDi_r2_v1.2.,2013-11-21 12:56:00,
2013-11-21 08:02:00,30.6,17.6,30.65,SW,215,6.0,7.0,58,0.00,,,0.00,HR-IXPWINDi_r2_v1.2.,2013-11-21 13:02:00,
2013-11-21 08:07:00,31.1,18.1,30.65,South,188,3.0,7.0,58,0.00,,,0.00,HR-IXPWINDi_r2_v1.2.,2013-11-21 13:07:00,
2013-11-21 08:12:00,31.7,18.2,30.65,SSW,212,5.0,7.0,57,0.00,,,0.00,HR-IXPWINDi_r2_v1.2.,2013-11-21 13:12:00,
2013-11-21 08:17:00,32.4,18.0,30.65,SW,221,5.0,7.0,55,0.00,,,0.00,HR-IXPWINDi_r2_v1.2.,2013-11-21 13:17:00,
2013-11-21 08:22:00,33.2,18.4,30.64,SSW,204,3.0,7.0,54,0.00,,,0.00,HR-IXPWINDi_r2_v1.2.,2013-11-21 13:22:00,
2013-11-21 08:27:00,33.9,18.6,30.65,SSW,213,3.0,9.0,53,0.00,,,0.00,HR-IXPWINDi_r2_v1.2.,2013-11-21 13:27:00,
2013-11-21 08:32:00,34.5,18.7,30.65,SSW,212,4.0,9.0,52,0.00,,,0.00,HR-IXPWINDi_r2_v1.2.,2013-11-21 13:32:00,
2013-11-21 08:38:00,35.1,19.3,30.65,SW,225,4.0,7.0,52,0.00,,,0.00,HR-IXPWINDi_r2_v1.2.,2013-11-21 13:38:00,
2013-11-21 08:43:00,35.5,19.6,30.64,South,183,4.0,7.0,52,0.00,,,0.00,HR-IXPWINDi_r2_v1.2.,2013-11-21 13:43:00,
2013-11-21 08:48:00,36.0,20.1,30.65,South,186,3.0,7.0,52,0.00,,,0.00,HR-IXPWINDi_r2_v1.2.,2013-11-21 13:48:00,
2013-11-21 08:53:00,36.4,20.5,30.65,SW,215,2.0,6.0,52,0.00,,,0.00,HR-IXPWINDi_r2_v1.2.,2013-11-21 13:53:00,
2013-11-21 08:58:00,37.0,20.6,30.64,South,177,3.0,6.0,51,0.00,,,0.00,HR-IXPWINDi_r2_v1.2.,2013-11-21 13:58:00,
2013-11-21 09:04:00,37.5,21.5,30.65,South,179,3.0,6.0,52,0.00,,,0.00,HR-IXPWINDi_r2_v1.2.,2013-11-21 14:04:00,
2013-11-21 09:09:00,37.9,21.4,30.65,SSW,195,3.0,5.0,51,0.00,,,0.00,HR-IXPWINDi_r2_v1.2.,2013-11-21 14:09:00,
2013-11-21 09:14:00,38.4,22.3,30.65,SSE,165,3.0,5.0,52,0.00,,,0.00,HR-IXPWINDi_r2_v1.2.,2013-11-21 14:14:00,
2013-11-21 09:19:00,38.9,22.8,30.65,South,180,3.0,5.0,52,0.00,,,0.00,HR-IXPWINDi_r2_v1.2.,2013-11-21 14:19:00,
2013-11-21 09:24:00,39.5,23.3,30.65,South,191,3.0,4.0,52,0.00,,,0.00,HR-IXPWINDi_r2_v1.2.,2013-11-21 14:24:00,
2013-11-21 09:29:00,40.2,23.5,30.65,SSE,165,0.0,3.0,51,0.00,,,0.00,HR-IXPWINDi_r2_v1.2.,2013-11-21 14:29:00,
2013-11-21 09:34:00,40.6,23.9,30.65,SSE,152,0.0,3.0,51,0.00,,,0.00,HR-IXPWINDi_r2_v1.2.,2013-11-21 14:34:00,
2013-11-21 09:39:00,40.8,23.6,30.65,SSE,153,1.0,3.0,50,0.00,,,0.00,HR-IXPWINDi_r2_v1.2.,2013-11-21 14:39:00,
2013-11-21 09:44:00,41.5,25.6,30.65,WSW,253,0.0,3.0,53,0.00,,,0.00,HR-IXPWINDi_r2_v1.2.,2013-11-21 14:44:00,
2013-11-21 09:49:00,41.6,23.8,30.65,SE,128,0.0,4.0,49,0.00,,,0.00,HR-IXPWINDi_r2_v1.2.,2013-11-21 14:49:00,
2013-11-21 09:54:00,42.3,25.4,30.65,ESE,106,0.0,4.0,51,0.00,,,0.00,HR-IXPWINDi_r2_v1.2.,2013-11-21 14:54:00,
2013-11-21 10:00:00,42.9,25.5,30.65,South,187,0.0,2.0,50,0.00,,,0.00,HR-IXPWINDi_r2_v1.2.,2013-11-21 15:00:00,
2013-11-21 10:05:00,43.5,26.1,30.65,WNW,283,1.0,2.0,50,0.00,,,0.00,HR-IXPWINDi_r2_v1.2.,2013-11-21 15:05:00,
2013-11-21 10:10:00,43.6,27.1,30.65,ENE,60,2.0,3.0,52,0.00,,,0.00,HR-IXPWINDi_r2_v1.2.,2013-11-21 15:10:00,
2013-11-21 10:15:00,43.7,26.3,30.65,East,91,1.0,3.0,50,0.00,,,0.00,HR-IXPWINDi_r2_v1.2.,2013-11-21 15:15:00,
2013-11-21 10:20:00,43.9,30.1,30.64,ENE,65,3.0,3.0,58,0.00,,,0.00,HR-IXPWINDi_r2_v1.2.,2013-11-21 15:20:00,
2013-11-21 10:25:00,43.3,29.5,30.64,East,99,1.0,3.0,58,0.00,,,0.00,HR-IXPWINDi_r2_v1.2.,2013-11-21 15:25:00,
2013-11-21 10:31:00,43.4,29.6,30.64,ENE,69,3.0,4.0,58,0.00,,,0.00,HR-IXPWINDi_r2_v1.2.,2013-11-21 15:31:00,
2013-11-21 10:36:00,43.4,30.4,30.64,East,92,4.0,5.0,60,0.00,,,0.00,HR-IXPWINDi_r2_v1.2.,2013-11-21 15:36:00,
2013-11-21 10:41:00,43.5,30.1,30.63,East,79,4.0,5.0,59,0.00,,,0.00,HR-IXPWINDi_r2_v1.2.,2013-11-21 15:41:00,
2013-11-21 10:46:00,43.3,30.7,30.63,East,96,1.0,5.0,61,0.00,,,0.00,HR-IXPWINDi_r2_v1.2.,2013-11-21 15:46:00,
2013-11-21 10:51:00,43.5,31.3,30.63,East,96,4.0,4.0,62,0.00,,,0.00,HR-IXPWINDi_r2_v1.2.,2013-11-21 15:51:00,
2013-11-21 10:56:00,43.5,30.9,30.63,NE,53,5.0,5.0,61,0.00,,,0.00,HR-IXPWINDi_r2_v1.2.,2013-11-21 15:56:00,
2013-11-21 11:01:00,43.8,30.8,30.63,ESE,105,3.0,6.0,60,0.00,,,0.00,HR-IXPWINDi_r2_v1.2.,2013-11-21 16:01:00,
2013-11-21 11:06:00,43.9,31.3,30.62,East,96,2.0,6.0,61,0.00,,,0.00,HR-IXPWINDi_r2_v1.2.,2013-11-21 16:06:00,
2013-11-21 11:11:00,43.9,30.5,30.62,ENE,75,5.0,9.0,59,0.00,,,0.00,HR-IXPWINDi_r2_v1.2.,2013-11-21 16:11:00,
2013-11-21 11:17:00,43.6,30.6,30.62,ENE,60,8.0,10.0,60,0.00,,,0.00,HR-IXPWINDi_r2_v1.2.,2013-11-21 16:17:00,
2013-11-21 11:22:00,43.5,31.3,30.62,ENE,69,7.0,11.0,62,0.00,,,0.00,HR-IXPWINDi_r2_v1.2.,2013-11-21 16:22:00,
2013-11-21 11:27:00,43.5,29.7,30.62,ENE,77,8.0,12.0,58,0.00,,,0.00,HR-IXPWINDi_r2_v1.2.,2013-11-21 16:27:00,
2013-11-21 11:32:00,43.6,31.4,30.61,NE,40,9.0,12.0,62,0.00,,,0.00,HR-IXPWINDi_r2_v1.2.,2013-11-21 16:32:00,
2013-11-21 11:37:00,43.8,30.8,30.61,ENE,77,6.0,12.0,60,0.00,,,0.00,HR-IXPWINDi_r2_v1.2.,2013-11-21 16:37:00,
2013-11-21 11:42:00,43.7,28.6,30.61,ENE,58,6.0,12.0,55,0.00,,,0.00,HR-IXPWINDi_r2_v1.2.,2013-11-21 16:42:00,
2013-11-21 11:47:00,43.8,29.5,30.61,NE,54,8.0,12.0,57,0.00,,,0.00,HR-IXPWINDi_r2_v1.2.,2013-11-21 16:47:00,
2013-11-21 11:52:00,44.0,31.0,30.61,ENE,67,6.0,12.0,60,0.00,,,0.00,HR-IXPWINDi_r2_v1.2.,2013-11-21 16:52:00,
2013-11-21 11:58:00,43.9,29.6,30.60,NNE,26,9.0,12.0,57,0.00,,,0.00,HR-IXPWINDi_r2_v1.2.,2013-11-21 16:58:00,
2013-11-21 12:03:00,44.0,29.3,30.60,ENE,61,11.0,12.0,56,0.00,,,0.00,HR-IXPWINDi_r2_v1.2.,2013-11-21 17:03:00,
2013-11-21 12:08:00,44.3,31.3,30.60,ENE,63,9.0,13.0,60,0.00,,,0.00,HR-IXPWINDi_r2_v1.2.,2013-11-21 17:08:00,
2013-11-21 12:13:00,44.2,27.2,30.60,ENE,65,10.0,13.0,51,0.00,,,0.00,HR-IXPWINDi_r2_v1.2.,2013-11-21 17:13:00,
2013-11-21 12:18:00,44.3,26.3,30.60,ENE,71,10.0,14.0,49,0.00,,,0.00,HR-IXPWINDi_r2_v1.2.,2013-11-21 17:18:00,
2013-11-21 12:24:00,44.4,27.9,30.59,ENE,75,8.0,14.0,52,0.00,,,0.00,HR-IXPWINDi_r2_v1.2.,2013-11-21 17:24:00,
2013-11-21 12:29:00,44.8,27.8,30.59,ENE,68,13.0,14.0,51,0.00,,,0.00,HR-IXPWINDi_r2_v1.2.,2013-11-21 17:29:00,
2013-11-21 12:34:00,44.8,28.7,30.59,ENE,72,15.0,15.0,53,0.00,,,0.00,HR-IXPWINDi_r2_v1.2.,2013-11-21 17:34:00,
2013-11-21 12:39:00,44.9,28.8,30.59,ENE,70,12.0,15.0,53,0.00,,,0.00,HR-IXPWINDi_r2_v1.2.,2013-11-21 17:39:00,
2013-11-21 12:44:00,45.1,29.4,30.59,ENE,72,8.0,15.0,54,0.00,,,0.00,HR-IXPWINDi_r2_v1.2.,2013-11-21 17:44:00,
2013-11-21 12:49:00,45.1,29.0,30.58,ENE,72,13.0,16.0,53,0.00,,,0.00,HR-IXPWINDi_r2_v1.2.,2013-11-21 17:49:00,
2013-11-21 12:54:00,45.3,30.9,30.58,ENE,76,9.0,16.0,57,0.00,,,0.00,HR-IXPWINDi_r2_v1.2.,2013-11-21 17:54:00,
2013-11-21 13:00:00,45.2,30.4,30.58,ENE,78,11.0,16.0,56,0.00,,,0.00,HR-IXPWINDi_r2_v1.2.,2013-11-21 18:00:00,
2013-11-21 13:05:00,45.5,31.1,30.58,ENE,69,10.0,14.0,57,0.00,,,0.00,HR-IXPWINDi_r2_v1.2.,2013-11-21 18:05:00,
2013-11-21 13:10:00,45.2,31.7,30.58,ENE,76,14.0,17.0,59,0.00,,,0.00,HR-IXPWINDi_r2_v1.2.,2013-11-21 18:10:00,
2013-11-21 13:15:00,45.3,31.4,30.57,ENE,66,10.0,17.0,58,0.00,,,0.00,HR-IXPWINDi_r2_v1.2.,2013-11-21 18:15:00,
2013-11-21 13:20:00,45.3,31.4,30.57,ENE,75,10.0,17.0,58,0.00,,,0.00,HR-IXPWINDi_r2_v1.2.,2013-11-21 18:20:00,
2013-11-21 13:25:00,45.5,31.1,30.57,ENE,70,16.0,17.0,57,0.00,,,0.00,HR-IXPWINDi_r2_v1.2.,2013-11-21 18:25:00,
2013-11-21 13:31:00,45.5,32.0,30.57,ENE,65,12.0,17.0,59,0.00,,,0.00,HR-IXPWINDi_r2_v1.2.,2013-11-21 18:31:00,
2013-11-21 13:36:00,45.5,30.7,30.57,ENE,68,12.0,17.0,56,0.00,,,0.00,HR-IXPWINDi_r2_v1.2.,2013-11-21 18:36:00,
2013-11-21 13:41:00,45.5,31.6,30.56,ENE,73,13.0,17.0,58,0.00,,,0.00,HR-IXPWINDi_r2_v1.2.,2013-11-21 18:41:00,
2013-11-21 13:46:00,45.3,32.2,30.56,East,96,8.0,15.0,60,0.00,,,0.00,HR-IXPWINDi_r2_v1.2.,2013-11-21 18:46:00,
2013-11-21 13:51:00,45.6,31.6,30.55,ENE,73,9.0,14.0,58,0.00,,,0.00,HR-IXPWINDi_r2_v1.2.,2013-11-21 18:51:00,
2013-11-21 13:56:00,45.7,32.6,30.55,ENE,68,12.0,15.0,60,0.00,,,0.00,HR-IXPWINDi_r2_v1.2.,2013-11-21 18:56:00,
2013-11-21 14:01:00,45.6,33.3,30.54,ENE,70,13.0,16.0,62,0.00,,,0.00,HR-IXPWINDi_r2_v1.2.,2013-11-21 19:01:00,
2013-11-21 14:06:00,45.5,33.2,30.54,ENE,68,15.0,17.0,62,0.00,,,0.00,HR-IXPWINDi_r2_v1.2.,2013-11-21 19:06:00,
2013-11-21 14:12:00,45.2,32.9,30.54,ENE,75,15.0,17.0,62,0.00,,,0.00,HR-IXPWINDi_r2_v1.2.,2013-11-21 19:12:00,
2013-11-21 14:17:00,45.0,31.9,30.54,ENE,72,11.0,16.0,60,0.00,,,0.00,HR-IXPWINDi_r2_v1.2.,2013-11-21 19:17:00,
2013-11-21 14:22:00,44.9,31.0,30.54,ENE,74,8.0,16.0,58,0.00,,,0.00,HR-IXPWINDi_r2_v1.2.,2013-11-21 19:22:00,
2013-11-21 14:27:00,44.9,31.8,30.54,ENE,65,8.0,15.0,60,0.00,,,0.00,HR-IXPWINDi_r2_v1.2.,2013-11-21 19:27:00,
2013-11-21 14:32:00,45.2,31.7,30.54,ENE,72,9.0,13.0,59,0.00,,,0.00,HR-IXPWINDi_r2_v1.2.,2013-11-21 19:32:00,
2013-11-21 14:37:00,45.2,29.5,30.54,ENE,77,9.0,15.0,54,0.00,,,0.00,HR-IXPWINDi_r2_v1.2.,2013-11-21 19:37:00,
2013-11-21 14:43:00,45.0,30.2,30.54,ENE,77,10.0,15.0,56,0.00,,,0.00,HR-IXPWINDi_r2_v1.2.,2013-11-21 19:43:00,
2013-11-21 14:48:00,44.9,30.1,30.53,East,96,10.0,14.0,56,0.00,,,0.00,HR-IXPWINDi_r2_v1.2.,2013-11-21 19:48:00,
2013-11-21 14:53:00,45.1,29.0,30.53,ENE,70,8.0,14.0,53,0.00,,,0.00,HR-IXPWINDi_r2_v1.2.,2013-11-21 19:53:00,
2013-11-21 14:58:00,45.6,30.8,30.53,ENE,70,7.0,11.0,56,0.00,,,0.00,HR-IXPWINDi_r2_v1.2.,2013-11-21 19:58:00,
2013-11-21 15:03:00,46.1,31.2,30.53,East,89,6.0,10.0,56,0.00,,,0.00,HR-IXPWINDi_r2_v1.2.,2013-11-21 20:03:00,
2013-11-21 15:08:00,46.3,32.3,30.53,East,82,6.0,10.0,58,0.00,,,0.00,HR-IXPWINDi_r2_v1.2.,2013-11-21 20:08:00,
2013-11-21 15:14:00,46.1,32.1,30.53,East,91,5.0,10.0,58,0.00,,,0.00,HR-IXPWINDi_r2_v1.2.,2013-11-21 20:14:00,
2013-11-21 15:19:00,45.7,32.2,30.53,East,94,5.0,9.0,59,0.00,,,0.00,HR-IXPWINDi_r2_v1.2.,2013-11-21 20:19:00,
2013-11-21 15:24:00,45.3,32.6,30.52,ENE,75,5.0,7.0,61,0.00,,,0.00,HR-IXPWINDi_r2_v1.2.,2013-11-21 20:24:00,
2013-11-21 15:29:00,45.1,32.4,30.53,ENE,75,5.0,7.0,61,0.00,,,0.00,HR-IXPWINDi_r2_v1.2.,2013-11-21 20:29:00,
2013-11-21 15:34:00,45.2,32.9,30.52,ENE,73,4.0,7.0,62,0.00,,,0.00,HR-IXPWINDi_r2_v1.2.,2013-11-21 20:34:00,
2013-11-21 15:40:00,45.3,33.0,30.52,ENE,72,3.0,6.0,62,0.00,,,0.00,HR-IXPWINDi_r2_v1.2.,2013-11-21 20:40:00,
2013-11-21 15:45:00,45.2,32.9,30.52,ENE,77,3.0,5.0,62,0.00,,,0.00,HR-IXPWINDi_r2_v1.2.,2013-11-21 20:45:00,
2013-11-21 15:50:00,45.2,33.3,30.52,East,84,3.0,5.0,63,0.00,,,0.00,HR-IXPWINDi_r2_v1.2.,2013-11-21 20:50:00,
2013-11-21 15:55:00,45.0,32.3,30.52,ESE,103,2.0,5.0,61,0.00,,,0.00,HR-IXPWINDi_r2_v1.2.,2013-11-21 20:55:00,
2013-11-21 16:01:00,45.0,32.3,30.52,ESE,114,0.0,4.0,61,0.00,,,0.00,HR-IXPWINDi_r2_v1.2.,2013-11-21 21:01:00,
2013-11-21 16:06:00,45.1,32.4,30.52,ESE,111,2.0,4.0,61,0.00,,,0.00,HR-IXPWINDi_r2_v1.2.,2013-11-21 21:06:00,
2013-11-21 16:11:00,44.8,32.5,30.52,ESE,113,0.0,3.0,62,0.00,,,0.00,HR-IXPWINDi_r2_v1.2.,2013-11-21 21:11:00,
2013-11-21 16:16:00,44.6,32.4,30.52,ESE,122,1.0,4.0,62,0.00,,,0.00,HR-IXPWINDi_r2_v1.2.,2013-11-21 21:16:00,
2013-11-21 16:21:00,44.4,32.2,30.52,ESE,121,1.0,4.0,62,0.00,,,0.00,HR-IXPWINDi_r2_v1.2.,2013-11-21 21:21:00,
2013-11-21 16:26:00,44.1,31.9,30.52,SSE,152,1.0,2.0,62,0.00,,,0.00,HR-IXPWINDi_r2_v1.2.,2013-11-21 21:26:00,
2013-11-21 16:31:00,43.8,31.6,30.52,SSE,148,0.0,2.0,62,0.00,,,0.00,HR-IXPWINDi_r2_v1.2.,2013-11-21 21:31:00,
2013-11-21 16:37:00,43.5,31.7,30.52,SSE,148,0.0,2.0,63,0.00,,,0.00,HR-IXPWINDi_r2_v1.2.,2013-11-21 21:37:00,
2013-11-21 16:42:00,43.2,31.8,30.52,SSE,148,0.0,1.0,64,0.00,,,0.00,HR-IXPWINDi_r2_v1.2.,2013-11-21 21:42:00,
2013-11-21 16:47:00,42.9,31.5,30.52,SSE,148,0.0,1.0,64,0.00,,,0.00,HR-IXPWINDi_r2_v1.2.,2013-11-21 21:47:00,
2013-11-21 16:52:00,42.7,31.7,30.52,SSE,148,1.0,1.0,65,0.00,,,0.00,HR-IXPWINDi_r2_v1.2.,2013-11-21 21:52:00,
2013-11-21 16:57:00,42.9,31.5,30.52,SE,139,1.0,2.0,64,0.00,,,0.00,HR-IXPWINDi_r2_v1.2.,2013-11-21 21:57:00,
2013-11-21 17:03:00,42.9,31.5,30.52,SE,141,0.0,2.0,64,0.00,,,0.00,HR-IXPWINDi_r2_v1.2.,2013-11-21 22:03:00,
2013-11-21 17:08:00,42.8,31.4,30.52,SE,141,0.0,1.0,64,0.00,,,0.00,HR-IXPWINDi_r2_v1.2.,2013-11-21 22:08:00,
2013-11-21 17:13:00,42.8,31.8,30.52,SE,131,1.0,2.0,65,0.00,,,0.00,HR-IXPWINDi_r2_v1.2.,2013-11-21 22:13:00,
2013-11-21 17:18:00,42.7,31.7,30.52,SE,131,0.0,2.0,65,0.00,,,0.00,HR-IXPWINDi_r2_v1.2.,2013-11-21 22:18:00,
2013-11-21 17:23:00,42.1,31.5,30.52,SE,131,1.0,1.0,66,0.00,,,0.00,HR-IXPWINDi_r2_v1.2.,2013-11-21 22:23:00,
2013-11-21 17:28:00,41.4,31.2,30.52,SE,138,1.0,1.0,67,0.00,,,0.00,HR-IXPWINDi_r2_v1.2.,2013-11-21 22:28:00,
2013-11-21 17:34:00,40.9,31.1,30.52,SE,138,1.0,1.0,68,0.00,,,0.00,HR-IXPWINDi_r2_v1.2.,2013-11-21 22:34:00,
2013-11-21 17:39:00,40.9,31.1,30.52,SE,138,0.0,1.0,68,0.00,,,0.00,HR-IXPWINDi_r2_v1.2.,2013-11-21 22:39:00,
2013-11-21 17:44:00,40.5,30.7,30.52,SE,138,0.0,1.0,68,0.00,,,0.00,HR-IXPWINDi_r2_v1.2.,2013-11-21 22:44:00,
2013-11-21 17:49:00,40.3,30.9,30.52,SE,138,0.0,0.0,69,0.00,,,0.00,HR-IXPWINDi_r2_v1.2.,2013-11-21 22:49:00,
2013-11-21 17:54:00,40.5,31.1,30.51,SE,138,0.0,0.0,69,0.00,,,0.00,HR-IXPWINDi_r2_v1.2.,2013-11-21 22:54:00,
2013-11-21 17:59:00,40.5,31.1,30.52,SE,139,0.0,0.0,69,0.00,,,0.00,HR-IXPWINDi_r2_v1.2.,2013-11-21 22:59:00,
2013-11-21 18:05:00,40.5,31.1,30.52,SE,138,0.0,0.0,69,0.00,,,0.00,HR-IXPWINDi_r2_v1.2.,2013-11-21 23:05:00,
2013-11-21 18:10:00,40.3,30.9,30.52,SE,139,0.0,0.0,69,0.00,,,0.00,HR-IXPWINDi_r2_v1.2.,2013-11-21 23:10:00,
2013-11-21 18:15:00,40.2,31.2,30.51,SE,138,0.0,1.0,70,0.00,,,0.00,HR-IXPWINDi_r2_v1.2.,2013-11-21 23:15:00,
2013-11-21 18:20:00,40.3,31.3,30.51,SE,138,1.0,1.0,70,0.00,,,0.00,HR-IXPWINDi_r2_v1.2.,2013-11-21 23:20:00,
2013-11-21 18:25:00,39.9,31.2,30.52,SE,138,0.0,1.0,71,0.00,,,0.00,HR-IXPWINDi_r2_v1.2.,2013-11-21 23:25:00,
2013-11-21 18:30:00,39.9,31.6,30.52,SE,138,0.0,1.0,72,0.00,,,0.00,HR-IXPWINDi_r2_v1.2.,2013-11-21 23:30:00,
2013-11-21 18:35:00,40.0,32.0,30.51,SE,138,0.0,0.0,73,0.00,,,0.00,HR-IXPWINDi_r2_v1.2.,2013-11-21 23:35:00,
2013-11-21 18:41:00,40.0,32.0,30.51,SE,139,0.0,0.0,73,0.00,,,0.00,HR-IXPWINDi_r2_v1.2.,2013-11-21 23:41:00,
2013-11-21 18:46:00,39.8,31.8,30.51,SE,138,0.0,0.0,73,0.00,,,0.00,HR-IXPWINDi_r2_v1.2.,2013-11-21 23:46:00,
2013-11-21 18:51:00,39.7,31.7,30.51,SE,138,0.0,0.0,73,0.00,,,0.00,HR-IXPWINDi_r2_v1.2.,2013-11-21 23:51:00,
2013-11-21 18:57:00,40.4,32.4,30.51,SE,138,0.0,1.0,73,0.00,,,0.00,HR-IXPWINDi_r2_v1.2.,2013-11-21 23:57:00,
2013-11-21 19:02:00,40.6,32.3,30.51,SE,139,0.0,1.0,72,0.00,,,0.00,HR-IXPWINDi_r2_v1.2.,2013-11-22 00:02:00,
2013-11-21 19:07:00,40.6,32.3,30.51,South,186,2.0,2.0,72,0.00,,,0.00,HR-IXPWINDi_r2_v1.2.,2013-11-22 00:07:00,
2013-11-21 19:12:00,40.7,33.4,30.51,South,191,0.0,2.0,75,0.00,,,0.00,HR-IXPWINDi_r2_v1.2.,2013-11-22 00:12:00,
2013-11-21 19:17:00,40.7,33.4,30.51,South,177,1.0,2.0,75,0.00,,,0.00,HR-IXPWINDi_r2_v1.2.,2013-11-22 00:17:00,
2013-11-21 19:22:00,40.5,33.2,30.51,South,177,0.0,1.0,75,0.00,,,0.00,HR-IXPWINDi_r2_v1.2.,2013-11-22 00:22:00,
2013-11-21 19:27:00,40.5,33.5,30.51,SSE,162,0.0,1.0,76,0.00,,,0.00,HR-IXPWINDi_r2_v1.2.,2013-11-22 00:27:00,
2013-11-21 19:32:00,40.5,33.5,30.50,SSE,162,0.0,0.0,76,0.00,,,0.00,HR-IXPWINDi_r2_v1.2.,2013-11-22 00:32:00,
2013-11-21 19:37:00,40.5,33.8,30.50,SSE,162,0.0,2.0,77,0.00,,,0.00,HR-IXPWINDi_r2_v1.2.,2013-11-22 00:37:00,
2013-11-21 19:42:00,40.3,33.6,30.50,SSE,162,1.0,2.0,77,0.00,,,0.00,HR-IXPWINDi_r2_v1.2.,2013-11-22 00:42:00,
2013-11-21 19:48:00,40.3,34.0,30.50,SSE,165,0.0,2.0,78,0.00,,,0.00,HR-IXPWINDi_r2_v1.2.,2013-11-22 00:48:00,
2013-11-21 19:53:00,40.3,34.0,30.50,SSE,165,0.0,2.0,78,0.00,,,0.00,HR-IXPWINDi_r2_v1.2.,2013-11-22 00:53:00,
2013-11-21 19:58:00,40.3,34.0,30.50,SSE,165,0.0,1.0,78,0.00,,,0.00,HR-IXPWINDi_r2_v1.2.,2013-11-22 00:58:00,
2013-11-21 20:03:00,40.2,33.5,30.50,SSE,165,0.0,1.0,77,0.00,,,0.00,HR-IXPWINDi_r2_v1.2.,2013-11-22 01:03:00,
2013-11-21 20:08:00,40.2,33.2,30.50,SSE,165,0.0,1.0,76,0.00,,,0.00,HR-IXPWINDi_r2_v1.2.,2013-11-22 01:08:00,
2013-11-21 20:13:00,40.2,32.9,30.49,SSE,167,1.0,2.0,75,0.00,,,0.00,HR-IXPWINDi_r2_v1.2.,2013-11-22 01:13:00,
2013-11-21 20:18:00,40.4,33.1,30.49,South,179,0.0,2.0,75,0.00,,,0.00,HR-IXPWINDi_r2_v1.2.,2013-11-22 01:18:00,
2013-11-21 20:24:00,40.4,33.4,30.49,South,179,1.0,2.0,76,0.00,,,0.00,HR-IXPWINDi_r2_v1.2.,2013-11-22 01:24:00,
2013-11-21 20:29:00,40.4,33.7,30.49,South,179,0.0,1.0,77,0.00,,,0.00,HR-IXPWINDi_r2_v1.2.,2013-11-22 01:29:00,
2013-11-21 20:34:00,40.4,33.7,30.49,South,179,1.0,1.0,77,0.00,,,0.00,HR-IXPWINDi_r2_v1.2.,2013-11-22 01:34:00,
2013-11-21 20:39:00,40.5,33.8,30.49,South,170,1.0,1.0,77,0.00,,,0.00,HR-IXPWINDi_r2_v1.2.,2013-11-22 01:39:00,
2013-11-21 20:44:00,40.4,33.4,30.49,South,169,0.0,2.0,76,0.00,,,0.00,HR-IXPWINDi_r2_v1.2.,2013-11-22 01:44:00,
2013-11-21 20:49:00,40.3,33.3,30.48,South,169,0.0,2.0,76,0.00,,,0.00,HR-IXPWINDi_r2_v1.2.,2013-11-22 01:49:00,
2013-11-21 20:54:00,40.3,33.3,30.48,South,169,0.0,1.0,76,0.00,,,0.00,HR-IXPWINDi_r2_v1.2.,2013-11-22 01:54:00,
2013-11-21 20:59:00,40.2,33.2,30.48,South,169,0.0,1.0,76,0.00,,,0.00,HR-IXPWINDi_r2_v1.2.,2013-11-22 01:59:00,
2013-11-21 21:04:00,40.1,33.1,30.48,SSE,160,0.0,0.0,76,0.00,,,0.00,HR-IXPWINDi_r2_v1.2.,2013-11-22 02:04:00,
2013-11-21 21:08:00,40.1,32.8,30.48,SSE,160,0.0,0.0,75,0.00,,,0.00,HR-IXPWINDi_r2_v1.2.,2013-11-22 02:08:00,
2013-11-21 21:13:00,40.1,32.8,30.48,SSE,160,0.0,0.0,75,0.00,,,0.00,HR-IXPWINDi_r2_v1.2.,2013-11-22 02:13:00,
2013-11-21 21:18:00,40.3,32.6,30.48,SSE,160,1.0,1.0,74,0.00,,,0.00,HR-IXPWINDi_r2_v1.2.,2013-11-22 02:18:00,
2013-11-21 21:24:00,40.6,32.9,30.48,SSE,160,0.0,1.0,74,0.00,,,0.00,HR-IXPWINDi_r2_v1.2.,2013-11-22 02:24:00,
2013-11-21 21:29:00,40.6,32.9,30.48,SSE,160,0.0,1.0,74,0.00,,,0.00,HR-IXPWINDi_r2_v1.2.,2013-11-22 02:29:00,
2013-11-21 21:34:00,40.6,32.9,30.48,SSE,160,0.0,0.0,74,0.00,,,0.00,HR-IXPWINDi_r2_v1.2.,2013-11-22 02:34:00,
2013-11-21 21:39:00,40.6,32.9,30.48,SSE,159,0.0,0.0,74,0.00,,,0.00,HR-IXPWINDi_r2_v1.2.,2013-11-22 02:39:00,
2013-11-21 21:44:00,40.6,33.3,30.47,SSE,160,0.0,0.0,75,0.00,,,0.00,HR-IXPWINDi_r2_v1.2.,2013-11-22 02:44:00,
2013-11-21 21:50:00,40.8,33.5,30.47,SSE,160,0.0,0.0,75,0.00,,,0.00,HR-IXPWINDi_r2_v1.2.,2013-11-22 02:50:00,
2013-11-21 21:55:00,40.9,33.9,30.47,SSE,160,0.0,0.0,76,0.00,,,0.00,HR-IXPWINDi_r2_v1.2.,2013-11-22 02:55:00,
2013-11-21 22:00:00,41.1,34.1,30.47,SSE,160,0.0,0.0,76,0.00,,,0.00,HR-IXPWINDi_r2_v1.2.,2013-11-22 03:00:00,
2013-11-21 22:05:00,41.1,34.1,30.46,SSE,160,0.0,1.0,76,0.00,,,0.00,HR-IXPWINDi_r2_v1.2.,2013-11-22 03:05:00,
2013-11-21 22:10:00,41.2,34.2,30.46,SSE,160,0.0,1.0,76,0.00,,,0.00,HR-IXPWINDi_r2_v1.2.,2013-11-22 03:10:00,
2013-11-21 22:15:00,41.4,34.7,30.46,SSE,160,0.0,1.0,77,0.00,,,0.00,HR-IXPWINDi_r2_v1.2.,2013-11-22 03:15:00,
2013-11-21 22:20:00,41.5,34.8,30.46,SSE,162,1.0,1.0,77,0.00,,,0.00,HR-IXPWINDi_r2_v1.2.,2013-11-22 03:20:00,
2013-11-21 22:26:00,41.6,35.2,30.46,South,174,0.0,2.0,78,0.00,,,0.00,HR-IXPWINDi_r2_v1.2.,2013-11-22 03:26:00,
2013-11-21 22:31:00,41.6,35.2,30.46,South,174,0.0,2.0,78,0.00,,,0.00,HR-IXPWINDi_r2_v1.2.,2013-11-22 03:31:00,
2013-11-21 22:36:00,41.5,35.1,30.46,SSE,165,0.0,1.0,78,0.00,,,0.00,HR-IXPWINDi_r2_v1.2.,2013-11-22 03:36:00,
2013-11-21 22:41:00,41.7,35.3,30.46,SSE,165,0.0,1.0,78,0.00,,,0.00,HR-IXPWINDi_r2_v1.2.,2013-11-22 03:41:00,
2013-11-21 22:46:00,42.0,35.6,30.46,SSE,152,0.0,1.0,78,0.00,,,0.00,HR-IXPWINDi_r2_v1.2.,2013-11-22 03:46:00,
2013-11-21 22:51:00,42.3,35.6,30.46,SE,145,0.0,1.0,77,0.00,,,0.00,HR-IXPWINDi_r2_v1.2.,2013-11-22 03:51:00,
2013-11-21 22:57:00,42.6,36.2,30.46,SE,143,0.0,1.0,78,0.00,,,0.00,HR-IXPWINDi_r2_v1.2.,2013-11-22 03:57:00,
2013-11-21 23:02:00,43.3,36.5,30.45,SE,125,1.0,2.0,77,0.00,,,0.00,HR-IXPWINDi_r2_v1.2.,2013-11-22 04:02:00,
2013-11-21 23:07:00,43.8,37.0,30.45,SE,136,1.0,3.0,77,0.00,,,0.00,HR-IXPWINDi_r2_v1.2.,2013-11-22 04:07:00,
2013-11-21 23:12:00,44.2,37.1,30.45,ESE,114,3.0,3.0,76,0.00,,,0.00,HR-IXPWINDi_r2_v1.2.,2013-11-22 04:12:00,
2013-11-21 23:17:00,44.7,37.2,30.44,SE,146,2.0,3.0,75,0.00,,,0.00,HR-IXPWINDi_r2_v1.2.,2013-11-22 04:17:00,
2013-11-21 23:22:00,44.9,37.4,30.44,SE,144,0.0,3.0,75,0.00,,,0.00,HR-IXPWINDi_r2_v1.2.,2013-11-22 04:22:00,
2013-11-21 23:28:00,45.0,37.5,30.44,SE,131,2.0,2.0,75,0.00,,,0.00,HR-IXPWINDi_r2_v1.2.,2013-11-22 04:28:00,
2013-11-21 23:33:00,45.1,37.6,30.44,SE,141,1.0,2.0,75,0.00,,,0.00,HR-IXPWINDi_r2_v1.2.,2013-11-22 04:33:00,
2013-11-21 23:38:00,45.1,37.6,30.44,SE,124,1.0,2.0,75,0.00,,,0.00,HR-IXPWINDi_r2_v1.2.,2013-11-22 04:38:00,
2013-11-21 23:43:00,45.1,37.6,30.43,SE,131,1.0,2.0,75,0.00,,,0.00,HR-IXPWINDi_r2_v1.2.,2013-11-22 04:43:00,
2013-11-21 23:48:00,45.3,37.8,30.43,ESE,122,1.0,3.0,75,0.00,,,0.00,HR-IXPWINDi_r2_v1.2.,2013-11-22 04:48:00,
2013-11-21 23:53:00,45.3,37.8,30.43,SE,124,2.0,3.0,75,0.00,,,0.00,HR-IXPWINDi_r2_v1.2.,2013-11-22 04:53:00,
2013-11-21 23:58:00,45.2,37.7,30.43,ESE,110,3.0,5.0,75,0.00,,,0.00,HR-IXPWINDi_r2_v1.2.,2013-11-22 04:58:00,